Location: Hawks Ness
(60.2333°N, 1.1667°W)
Time: 00:55:14
(UTC+00:00)

Cosmos 1190 Rocket - Pass Details

Date: 22 October 2019
Orbit: 758 x 779 km, 74.1° (Epoch: 16 November)

Event Time Altitude Azimuth Distance (km) Brightness Sun altitude
Exits shadow 05:05:21 10° 218° (SW) 2,344 6.1 -14.9°
Reaches altitude 10° 05:05:24 10° 218° (SW) 2,326 6.1 -14.9°
Maximum altitude 05:10:41 77° 305° (NW) 799 4.0 -14.3°
Drops below altitude 10° 05:15:59 10° 32° (NNE) 2,325 7.0 -13.6°
Sets 05:18:22 0° 34° (NE) 3,252 7.8 -13.3°
